This is the latest recevied weather packets stored in our database for station/object N6GPM. If no packets are shown the sender has not sent any weather packets the latest 10 day(s).
| Time | Temp. | Humidity | Pressure | Rain* | Wind** | Luminosity | Snow |
|---|---|---|---|---|---|---|---|
| 1788050098 | 34.44° C | 27% | 1014.9 hPa | 0 mm | - | 233 W/m² | - |
| 1788049796 | 34.44° C | 26% | 1014.7 hPa | 0 mm | - | 250 W/m² | - |
| 1788049491 | 34.44° C | 27% | 1015 hPa | 0 mm | - | 270 W/m² | - |
| 1788049187 | 34.44° C | 26% | 1014.8 hPa | 0 mm | - | 291 W/m² | - |
| 1788048882 | 34.44° C | 24% | 1014.8 hPa | 0 mm | - | 315 W/m² | - |
| 1788048577 | 35° C | 25% | 1014.7 hPa | 0 mm | - | 338 W/m² | - |
| 1788048274 | 35° C | 25% | 1014.8 hPa | 0 mm | - | 358 W/m² | - |
| 1788047972 | 35° C | 26% | 1014.9 hPa | 0 mm | - | 380 W/m² | - |
| 1788047666 | 35° C | 24% | 1014.7 hPa | 0 mm | - | 398 W/m² | - |
| 1788047366 | 35° C | 26% | 1014.8 hPa | 0 mm | - | 420 W/m² | - |
| 1788047055 | 35° C | 27% | 1014.9 hPa | 0 mm | - | 444 W/m² | - |
| 1788046755 | 35° C | 27% | 1014.9 hPa | 0 mm | - | 464 W/m² | - |
| 1788046449 | 35° C | 27% | 1014.9 hPa | 0 mm | - | 482 W/m² | - |
| 1788046148 | 35° C | 27% | 1014.9 hPa | 0 mm | - | 507 W/m² | - |
| 1788045843 | 35° C | 26% | 1015 hPa | 0 mm | - | 526 W/m² | - |
| 1788045538 | 35° C | 26% | 1015.2 hPa | 0 mm | - | 546 W/m² | - |
| 1788045234 | 35° C | 27% | 1014.9 hPa | 0 mm | - | 563 W/m² | - |
| 1788044928 | 35° C | 26% | 1014.9 hPa | 0 mm | - | 586 W/m² | - |
| 1788044622 | 35.56° C | 27% | 1014.9 hPa | 0 mm | - | 605 W/m² | - |
| 1788044321 | 35° C | 27% | 1015 hPa | 0 mm | - | 625 W/m² | - |
| 1788044017 | 35° C | 28% | 1015.2 hPa | 0 mm | - | 648 W/m² | - |
| 1788043713 | 35° C | 27% | 1015.2 hPa | 0 mm | - | 666 W/m² | - |
| 1788043408 | 35.56° C | 25% | 1015.3 hPa | 0 mm | - | 675 W/m² | - |
| 1788043107 | 35° C | 26% | 1015 hPa | 0 mm | - | 694 W/m² | - |
| 1788042803 | 35° C | 26% | 1015.4 hPa | 0 mm | - | 705 W/m² | - |
* Rain latest hour (hover to see other rain measurements)
** Current wind speed in m/s (hover to see current wind gust speed)